GW4984 Weather Reports


time (UTC)temp
C
wind
direction
speed
KPH
gust
KPH
rain 1hr
cm
rain 24hr
cm
rain mn
cm
humidity
%
barometer
mb
20260507082058 8 17 0.0 0.0 0.00 0.00 0.00 73 1020.2
20260507081555 8 18 0.0 0.0 0.00 0.00 0.00 74 1020.1
20260507081052 8 18 0.0 0.0 0.00 0.00 0.00 74 1020.1
20260507080548 8 18 0.0 0.0 0.00 0.00 0.00 73 1020.1
20260507080045 8 18 0.0 0.0 0.00 0.00 0.00 73 1020.0
20260507075539 8 19 0.0 0.0 0.00 0.00 0.00 73 1019.9
20260507075036 9 19 0.0 0.0 0.00 0.00 0.00 73 1020.0
20260507074533 8 21 0.0 0.0 0.00 0.00 0.00 73 1020.1
20260507074032 8 20 0.0 0.0 0.00 0.00 0.00 73 1020.3
20260507073527 8 20 0.0 0.0 0.00 0.00 0.00 73 1020.0
20260507073024 9 20 0.0 0.0 0.00 0.00 0.00 73 1020.1
20260507072522 9 20 0.0 0.0 0.00 0.00 0.00 73 1019.9
20260507072019 8 24 0.0 0.0 0.00 0.00 0.00 73 1020.1
20260507071516 9 17 0.0 0.0 0.00 0.00 0.00 73 1020.1
20260507071012 9 17 0.0 0.0 0.00 0.00 0.00 72 1020.2
20260507070510 9 17 0.0 0.0 0.00 0.00 0.00 72 1020.5
20260507070010 9 17 0.0 0.0 0.00 0.00 0.00 71 1020.2
20260507065503 10 17 0.0 0.0 0.00 0.00 0.00 71 1020.2
20260507065000 9 19 0.0 0.0 0.00 0.00 0.00 71 1020.5
20260507064458 9 14 0.0 0.0 0.00 0.00 0.00 72 1020.4
20260507063956 10 14 0.0 0.0 0.00 0.00 0.00 72 1020.8
20260507063453 10 14 0.0 0.0 0.00 0.00 0.00 72 1020.6
20260507062949 10 14 0.0 0.0 0.00 0.00 0.00 71 1020.7
20260507062447 10 15 0.0 0.0 0.00 0.00 0.00 71 1020.4
20260507061944 10 15 0.0 0.0 0.00 0.00 0.00 71 1020.6
20260507061442 10 18 0.0 0.0 0.00 0.00 0.00 71 1020.5
20260507060940 10 20 0.0 0.0 0.00 0.00 0.00 70 1020.3
20260507060437 10 15 0.0 0.0 0.00 0.00 0.00 70 1020.4
20260507055933 10 15 0.0 0.0 0.00 0.00 0.00 70 1020.3
20260507055429 10 14 0.0 0.0 0.00 0.00 0.00 69 1020.2
20260507054926 10 35 0.0 0.0 0.00 0.00 0.00 70 1020.0
20260507054422 10 16 0.0 0.0 0.00 0.00 0.00 70 1020.1
20260507053919 10 17 0.0 0.0 0.00 0.00 0.00 69 1020.2
20260507053417 10 15 0.0 0.0 0.00 0.00 0.00 69 1020.3
20260507052915 10 15 0.0 0.0 0.00 0.00 0.00 68 1020.1
20260507052412 10 16 0.0 0.0 0.00 0.00 0.00 68 1020.3
20260507051908 10 17 0.0 0.0 0.00 0.00 0.00 67 1020.1
20260507051406 11 21 0.0 0.0 0.00 0.00 0.00 66 1020.1
20260507050903 11 21 0.0 0.0 0.00 0.00 0.00 67 1020.1
20260507050359 11 20 0.0 0.0 0.00 0.00 0.00 67 1020.0
20260507045856 11 18 0.0 0.0 0.00 0.00 0.00 67 1020.1
20260507045353 11 17 0.0 0.0 0.00 0.00 0.00 67 1020.1
20260507044850 11 20 0.0 0.0 0.00 0.00 0.00 67 1020.0
20260507044346 11 20 0.0 0.0 0.00 0.00 0.00 66 1020.0
20260507043842 10 20 0.0 0.0 0.00 0.00 0.00 66 1019.9
20260507043339 10 20 0.0 0.0 0.00 0.00 0.00 66 1020.1
20260507042831 11 20 0.0 0.0 0.00 0.00 0.00 66 1019.9
20260507042326 11 20 0.0 0.0 0.00 0.00 0.00 66 1019.9
20260507041823 11 20 0.0 0.0 0.00 0.00 0.00 65 1020.1
20260507041319 11 20 0.0 0.0 0.00 0.00 0.00 65 1019.9
20260507040817 11 20 0.0 0.0 0.00 0.00 0.00 65 1019.9
20260507040313 11 20 0.0 0.0 0.00 0.00 0.00 64 1019.9
20260507035809 11 20 0.0 0.0 0.00 0.00 0.00 64 1019.9
20260507035306 11 20 0.0 0.0 0.00 0.00 0.00 63 1020.0
20260507034803 11 20 0.0 0.0 0.00 0.00 0.00 62 1020.2
20260507034259 12 20 0.0 0.0 0.00 0.00 0.00 62 1019.9
20260507033757 12 20 0.0 0.0 0.00 0.00 0.00 61 1019.9
20260507033255 12 20 0.0 0.0 0.00 0.00 0.00 60 1019.7
20260507032751 12 19 0.0 0.0 0.00 0.00 0.00 59 1019.8
20260507032247 12 21 0.0 0.0 0.00 0.00 0.00 59 1019.8
20260507031744 12 28 0.0 1.6 0.00 0.00 0.00 59 1019.5
20260507031241 12 9 0.0 0.0 0.00 0.00 0.00 58 1019.7
20260507030738 12 19 0.0 0.0 0.00 0.00 0.00 58 1019.7
20260507030235 13 21 1.6 3.2 0.00 0.00 0.00 57 1019.6
20260507025732 13 21 0.0 0.0 0.00 0.00 0.00 57 1019.7
20260507025229 13 20 0.0 0.0 0.00 0.00 0.00 57 1019.6
20260507024728 13 19 0.0 0.0 0.00 0.00 0.00 57 1019.5
20260507024224 13 22 0.0 0.0 0.00 0.00 0.00 57 1019.4
20260507023720 13 39 1.6 1.6 0.00 0.00 0.00 57 1019.4
20260507023217 13 21 0.0 0.0 0.00 0.00 0.00 56 1019.4
20260507022715 13 18 0.0 0.0 0.00 0.00 0.00 56 1019.2
20260507022210 13 29 0.0 0.0 0.00 0.00 0.00 55 1019.1
20260507021707 13 18 0.0 0.0 0.00 0.00 0.00 55 1019.1
20260507021202 13 34 1.6 1.6 0.00 0.00 0.00 55 1019.2
20260507020701 13 10 0.0 0.0 0.00 0.00 0.00 54 1019.1
20260507020156 13 34 1.6 3.2 0.00 0.00 0.00 54 1018.9
20260507015655 14 22 1.6 1.6 0.00 0.00 0.00 54 1018.9
20260507015152 14 64 1.6 3.2 0.00 0.00 0.00 53 1018.9
20260507014648 14 8 0.0 0.0 0.00 0.00 0.00 53 1019.0
20260507014144 14 16 0.0 0.0 0.00 0.00 0.00 53 1018.8
20260507013641 15 16 3.2 6.4 0.00 0.00 0.00 51 1018.9
20260507013138 15 8 3.2 4.8 0.00 0.00 0.00 51 1018.4
20260507012636 15 32 0.0 1.6 0.00 0.00 0.00 51 1018.3
20260507012131 15 18 0.0 0.0 0.00 0.00 0.00 51 1018.4
20260507011630 15 12 0.0 1.6 0.00 0.00 0.00 51 1018.4
20260507011125 15 20 0.0 0.0 0.00 0.00 0.00 50 1018.1
20260507010620 15 11 0.0 0.0 0.00 0.00 0.00 50 1018.3
20260507010116 15 52 0.0 0.0 0.00 0.00 0.00 50 1018.3
20260507005614 15 21 0.0 1.6 0.00 0.00 0.00 49 1018.2
20260507005110 16 17 0.0 0.0 0.00 0.00 0.00 49 1018.3
20260507004607 16 21 0.0 1.6 0.00 0.00 0.00 48 1018.0
20260507004104 16 140 3.2 4.8 0.00 0.00 0.00 47 1018.0
20260507003600 16 14 0.0 1.6 0.00 0.00 0.00 47 1018.0
20260507003055 16 5 1.6 1.6 0.00 0.00 0.00 46 1017.9
20260507002552 16 32 4.8 6.4 0.00 0.00 0.00 45 1018.1
20260507002048 16 49 1.6 4.8 0.00 0.00 0.00 47 1017.9
20260507001545 16 63 4.8 6.4 0.00 0.00 0.00 45 1017.8
20260507001042 16 48 1.6 3.2 0.00 0.00 0.00 46 1017.8
20260507000538 16 153 3.2 6.4 0.00 0.00 0.00 45 1017.8
20260507000028 16 19 3.2 4.8 0.00 0.00 0.00 46 1017.7
20260506235525 16 106 4.8 6.4 0.00 0.00 0.00 46 1017.8
20260506235015 17 62 3.2 4.8 0.00 0.00 0.00 47 1017.8
20260506234513 17 9 1.6 3.2 0.00 0.00 0.00 46 1017.7
20260506234010 17 97 1.6 3.2 0.00 0.00 0.00 45 1017.8
20260506233507 17 43 1.6 1.6 0.00 0.00 0.00 45 1017.6
20260506233004 17 29 1.6 3.2 0.00 0.00 0.00 45 1017.6
20260506232500 17 93 6.4 6.4 0.00 0.00 0.00 44 1017.4
20260506231955 17 56 4.8 9.7 0.00 0.00 0.00 44 1017.7
20260506231453 17 96 4.8 6.4 0.00 0.00 0.00 44 1017.8
20260506230950 17 38 8.0 11.3 0.00 0.00 0.00 45 1017.4
20260506230445 17 65 3.2 4.8 0.00 0.00 0.00 44 1017.5
20260506225937 17 70 8.0 11.3 0.00 0.00 0.00 44 1017.4
20260506225435 18 11 4.8 9.7 0.00 0.00 0.00 44 1017.2
20260506224931 17 49 4.8 6.4 0.00 0.00 0.00 44 1017.2
20260506224429 18 43 4.8 9.7 0.00 0.00 0.00 45 1017.2
20260506223925 17 15 3.2 3.2 0.00 0.00 0.00 46 1017.2
20260506223420 17 48 4.8 6.4 0.00 0.00 0.00 46 1017.0
20260506222918 17 42 6.4 9.7 0.00 0.00 0.00 46 1017.0
20260506222414 17 131 4.8 6.4 0.00 0.00 0.00 46 1017.0
20260506221911 16 71 3.2 4.8 0.00 0.00 0.00 47 1017.1
20260506221409 17 101 1.6 4.8 0.00 0.00 0.00 48 1017.0
20260506220906 17 33 4.8 4.8 0.00 0.00 0.00 47 1017.0
20260506220401 17 14 3.2 3.2 0.00 0.00 0.00 47 1017.0
20260506215858 17 122 3.2 4.8 0.00 0.00 0.00 48 1016.8
20260506215354 17 114 6.4 9.7 0.00 0.00 0.00 47 1017.0
20260506214850 17 18 3.2 3.2 0.00 0.00 0.00 47 1017.0
20260506214347 17 358 4.8 9.7 0.00 0.00 0.00 47 1016.9
20260506213845 17 79 6.4 9.7 0.00 0.00 0.00 45 1017.1
20260506213342 18 64 9.7 12.9 0.00 0.00 0.00 44 1017.1
20260506212839 18 8 3.2 4.8 0.00 0.00 0.00 44 1017.0
20260506212335 17 13 4.8 6.4 0.00 0.00 0.00 46 1017.1
20260506211830 18 35 3.2 3.2 0.00 0.00 0.00 46 1016.9
20260506211326 17 32 3.2 3.2 0.00 0.00 0.00 45 1016.8
20260506210824 18 29 1.6 1.6 0.00 0.00 0.00 46 1017.0
20260506210320 18 355 1.6 1.6 0.00 0.00 0.00 48 1017.2
20260506205818 17 92 6.4 9.7 0.00 0.00 0.00 46 1017.0
20260506205313 18 116 6.4 11.3 0.00 0.00 0.00 44 1016.9
20260506204810 17 11 0.0 1.6 0.00 0.00 0.00 45 1017.3
20260506204308 17 8 1.6 3.2 0.00 0.00 0.00 46 1017.5
20260506203805 17 34 6.4 9.7 0.00 0.00 0.00 45 1017.5
20260506203302 17 60 4.8 4.8 0.00 0.00 0.00 47 1017.6
20260506202759 17 352 4.8 6.4 0.00 0.00 0.00 46 1017.8
20260506202256 17 49 8.0 11.3 0.00 0.00 0.00 49 1017.6
20260506201752 17 65 4.8 6.4 0.00 0.00 0.00 50 1017.7
20260506201249 17 29 3.2 3.2 0.00 0.00 0.00 49 1017.8
20260506200747 17 38 1.6 3.2 0.00 0.00 0.00 51 1017.8
20260506200243 16 118 1.6 3.2 0.00 0.00 0.00 52 1017.7
20260506195739 17 113 8.0 9.7 0.00 0.00 0.00 48 1017.8
20260506195236 16 58 1.6 3.2 0.00 0.00 0.00 51 1017.6
20260506194733 16 35 8.0 9.7 0.00 0.00 0.00 50 1017.5
20260506194230 16 43 4.8 6.4 0.00 0.00 0.00 50 1017.8
20260506193728 16 131 8.0 11.3 0.00 0.00 0.00 49 1017.7
20260506193224 16 46 4.8 6.4 0.00 0.00 0.00 51 1017.7
20260506192720 16 44 8.0 9.7 0.00 0.00 0.00 50 1017.8
20260506192217 16 128 4.8 6.4 0.00 0.00 0.00 51 1017.9
20260506191714 16 7 1.6 3.2 0.00 0.00 0.00 51 1017.9
20260506191210 16 102 3.2 3.2 0.00 0.00 0.00 52 1018.0
20260506190708 17 107 3.2 6.4 0.00 0.00 0.00 50 1018.1
20260506190204 17 30 3.2 4.8 0.00 0.00 0.00 52 1018.2
20260506185701 16 112 6.4 9.7 0.00 0.00 0.00 52 1018.4
20260506185158 16 118 4.8 4.8 0.00 0.00 0.00 51 1018.1
20260506184650 16 68 6.4 6.4 0.00 0.00 0.00 52 1018.4
20260506184147 16 175 9.7 12.9 0.00 0.00 0.00 54 1018.4
20260506183643 15 42 3.2 4.8 0.00 0.00 0.00 54 1018.5
20260506183139 16 68 1.6 3.2 0.00 0.00 0.00 54 1018.5
20260506182637 16 112 3.2 4.8 0.00 0.00 0.00 53 1018.6
20260506182133 16 166 6.4 9.7 0.00 0.00 0.00 54 1018.6
20260506181631 16 0 3.2 4.8 0.00 0.00 0.00 52 1018.7
20260506181128 15 50 6.4 9.7 0.00 0.00 0.00 53 1018.7
20260506180625 15 44 0.0 1.6 0.00 0.00 0.00 55 1018.9
20260506180121 15 108 6.4 12.9 0.00 0.00 0.00 52 1018.5
20260506175618 16 117 6.4 6.4 0.00 0.00 0.00 53 1018.7
20260506175114 16 110 3.2 4.8 0.00 0.00 0.00 54 1018.6
20260506174613 16 126 4.8 6.4 0.00 0.00 0.00 52 1018.7
20260506174109 16 116 3.2 3.2 0.00 0.00 0.00 53 1018.9
20260506173607 15 101 6.4 11.3 0.00 0.00 0.00 54 1018.9
20260506173103 15 9 3.2 4.8 0.00 0.00 0.00 53 1019.0
20260506172601 16 27 1.6 1.6 0.00 0.00 0.00 53 1019.1
20260506172051 15 31 4.8 4.8 0.00 0.00 0.00 53 1019.4
20260506171548 15 81 6.4 6.4 0.00 0.00 0.00 53 1019.5
20260506171046 16 152 8.0 9.7 0.00 0.00 0.00 57 1019.9
20260506170543 15 111 8.0 9.7 0.00 0.00 0.00 54 1019.8
20260506170036 15 90 3.2 4.8 0.00 0.00 0.00 54 1020.0
20260506165534 15 17 3.2 4.8 0.00 0.00 0.00 56 1020.0
20260506165030 15 31 4.8 4.8 0.00 0.00 0.00 55 1019.9
20260506164527 14 11 3.2 4.8 0.00 0.00 0.00 56 1020.0
20260506164024 14 54 3.2 6.4 0.00 0.00 0.00 57 1019.9
20260506163520 14 190 4.8 6.4 0.00 0.00 0.00 57 1019.8
20260506163016 14 47 4.8 6.4 0.00 0.00 0.00 56 1019.7
20260506162512 14 84 6.4 11.3 0.00 0.00 0.00 54 1019.5
20260506162009 15 21 12.9 20.9 0.00 0.00 0.00 53 1019.8
20260506161506 14 33 4.8 6.4 0.00 0.00 0.00 55 1019.7
20260506160958 14 81 9.7 12.9 0.00 0.00 0.00 54 1019.8
20260506160456 13 24 4.8 4.8 0.00 0.00 0.00 56 1019.5
20260506155953 13 62 9.7 12.9 0.00 0.00 0.00 56 1019.5
20260506155451 13 77 3.2 4.8 0.00 0.00 0.00 58 1019.4
20260506153622 13 22 3.2 3.2 0.00 0.00 0.00 62 1018.9
20260506153119 13 82 6.4 11.3 0.00 0.00 0.00 60 1018.8
20260506152616 13 59 4.8 6.4 0.00 0.00 0.00 60 1018.6
20260506152114 12 25 4.8 6.4 0.00 0.00 0.00 61 1018.5
20260506151612 12 114 8.0 11.3 0.00 0.00 0.00 60 1018.2
20260506151109 12 55 4.8 6.4 0.00 0.00 0.00 62 1018.1
20260506150606 12 97 6.4 11.3 0.00 0.00 0.00 62 1017.9
20260506145559 12 66 6.4 6.4 0.00 0.00 0.00 63 1018.2
20260506145057 11 38 4.8 6.4 0.00 0.00 0.00 63 1017.9
20260506144554 11 56 8.0 11.3 0.00 0.00 0.00 64 1017.9
20260506144050 11 98 3.2 6.4 0.00 0.00 0.00 65 1018.2
20260506143548 11 92 9.7 11.3 0.00 0.00 0.00 65 1018.3
20260506143046 11 40 9.7 14.5 0.00 0.00 0.00 66 1018.1
20260506142544 10 64 4.8 6.4 0.00 0.00 0.00 67 1018.2
20260506142042 11 85 8.0 11.3 0.00 0.00 0.00 66 1017.9
20260506141539 11 67 3.2 4.8 0.00 0.00 0.00 68 1018.1
20260506141037 10 65 3.2 3.2 0.00 0.00 0.00 68 1018.0
20260506140534 10 64 6.4 9.7 0.00 0.00 0.00 69 1018.0
20260506140032 10 115 3.2 4.8 0.00 0.00 0.00 70 1018.0
20260506135528 10 146 4.8 4.8 0.00 0.00 0.00 69 1018.0
20260506135024 10 63 6.4 11.3 0.00 0.00 0.00 70 1018.1
20260506134521 10 78 4.8 6.4 0.00 0.00 0.00 71 1018.5
20260506134017 10 102 1.6 3.2 0.00 0.00 0.00 71 1018.4
20260506133515 10 33 3.2 3.2 0.00 0.00 0.00 71 1018.5
20260506133011 10 92 9.7 12.9 0.00 0.00 0.00 71 1018.4
20260506132508 10 103 4.8 9.7 0.00 0.00 0.00 71 1018.5
20260506132006 10 82 4.8 6.4 0.00 0.00 0.00 72 1018.0
20260506131503 10 105 4.8 6.4 0.00 0.00 0.00 72 1018.2
20260506130959 10 43 4.8 9.7 0.00 0.00 0.00 72 1018.5
20260506130456 10 54 3.2 4.8 0.00 0.00 0.00 73 1018.2
20260506125953 10 64 3.2 4.8 0.00 0.00 0.00 74 1018.1
20260506125452 10 124 3.2 9.7 0.00 0.00 0.00 77 1018.0
20260506124949 9 58 4.8 6.4 0.00 0.00 0.00 77 1018.1
20260506124447 9 86 6.4 6.4 0.00 0.00 0.00 78 1017.9
20260506123945 9 45 3.2 4.8 0.00 0.00 0.00 79 1017.8
20260506123443 9 34 4.8 4.8 0.00 0.00 0.00 79 1017.7
20260506122940 9 41 1.6 3.2 0.00 0.00 0.00 80 1017.6
20260506122436 8 89 9.7 12.9 0.00 0.00 0.00 81 1017.7
20260506121935 8 82 8.0 12.9 0.00 0.00 0.00 82 1017.6
20260506121431 8 86 3.2 4.8 0.00 0.00 0.00 82 1017.5
20260506120928 8 63 8.0 9.7 0.00 0.00 0.00 82 1017.4
20260506120426 8 116 3.2 6.4 0.00 0.00 0.00 81 1017.1
20260506115923 8 58 4.8 6.4 0.00 0.00 0.00 81 1017.4
20260506115421 8 146 8.0 12.9 0.00 0.00 0.00 81 1017.1
20260506114919 8 30 6.4 9.7 0.00 0.00 0.00 81 1017.4
20260506114416 8 9 1.6 1.6 0.00 0.00 0.00 81 1017.4
20260506113915 8 23 3.2 3.2 0.00 0.00 0.00 81 1017.3
20260506113412 8 38 0.0 1.6 0.00 0.00 0.00 81 1017.3
20260506112909 8 21 3.2 4.8 0.00 0.00 0.00 81 1017.4
20260506112406 8 11 3.2 3.2 0.00 0.00 0.00 81 1017.4
20260506111903 8 65 3.2 9.7 0.00 0.00 0.00 81 1017.7
20260506111401 8 18 0.0 1.6 0.00 0.00 0.00 81 1017.5
20260506110858 8 124 4.8 6.4 0.00 0.00 0.00 81 1017.5
20260506110356 8 32 1.6 3.2 0.00 0.00 0.00 81 1017.5
20260506105852 8 20 3.2 4.8 0.00 0.00 0.00 81 1017.4
20260506105349 8 84 1.6 4.8 0.00 0.00 0.00 81 1017.1
20260506104846 8 146 3.2 3.2 0.00 0.00 0.00 81 1016.9
20260506104344 8 12 3.2 3.2 0.00 0.00 0.00 81 1016.8
20260506103841 8 38 4.8 4.8 0.00 0.00 0.00 81 1016.7
20260506103339 8 27 0.0 0.0 0.00 0.00 0.00 81 1016.7
20260506102836 8 72 3.2 4.8 0.00 0.00 0.00 81 1016.6
20260506102334 8 73 1.6 1.6 0.00 0.00 0.00 81 1016.7
20260506101831 8 45 3.2 4.8 0.00 0.00 0.00 80 1016.6
20260506101327 8 55 1.6 1.6 0.00 0.00 0.00 80 1016.8
20260506100825 8 29 0.0 0.0 0.00 0.00 0.00 80 1016.6
20260506100323 8 15 1.6 1.6 0.00 0.00 0.00 80 1016.3
20260506095821 8 53 4.8 4.8 0.00 0.00 0.00 80 1016.5
20260506095318 8 15 0.0 0.0 0.00 0.00 0.00 80 1016.4
20260506094815 8 26 1.6 3.2 0.00 0.00 0.00 80 1016.4
20260506094313 8 32 3.2 3.2 0.00 0.00 0.00 80 1016.4
20260506093811 8 7 1.6 1.6 0.00 0.00 0.00 80 1016.2
20260506093308 9 25 1.6 3.2 0.00 0.00 0.00 79 1016.0
20260506092806 9 21 1.6 1.6 0.00 0.00 0.00 79 1016.0
20260506092305 8 41 3.2 3.2 0.00 0.00 0.00 79 1015.5
20260506091800 8 109 6.4 9.7 0.00 0.00 0.00 79 1015.3
20260506091258 8 33 6.4 9.7 0.00 0.00 0.00 79 1015.2
20260506090756 8 27 1.6 3.2 0.00 0.00 0.00 79 1014.9
20260506090252 8 47 1.6 4.8 0.00 0.00 0.00 79 1014.6
20260506085749 8 16 0.0 0.0 0.00 0.00 0.00 79 1014.7
20260506085245 8 20 0.0 0.0 0.00 0.00 0.00 79 1014.8
20260506084742 8 44 4.8 4.8 0.00 0.00 0.00 79 1014.7
20260506084238 8 17 0.0 1.6 0.00 0.00 0.00 79 1014.8
20260506083736 8 40 1.6 1.6 0.00 0.00 0.00 79 1014.7
20260506083233 9 13 1.6 1.6 0.00 0.00 0.00 78 1014.5
20260506082730 9 19 1.6 3.2 0.00 0.00 0.00 77 1014.3